Regional Weather Roundup
Issued by NWS Kansas City/Pleasant Hill, MO

Home | Current Version | Previous Version | Graphics & Text | Print | Product List | Glossary Off
Versions: 1 2 3 4 5 6 7 8 9 10 11 12 13 14 15 16 17 18 19 20 21 22 23 24 25 26 27 28 29 30 31 32 33 34 35 36 37 38 39 40 41 42 43 44 45 46 47 48 49 50

000
ASUS43 KEAX 231304
RWREAX

WEATHER ROUNDUP FOR EASTERN KANSAS AND NORTHWEST MISSOURI
NATIONAL WEATHER SERVICE KANSAS CITY/PLEASANT HILL MO
800 AM CDT SAT AUG 23 2014

KSZ040-057-103>105-MOZ028-029-037-043-231400-
...KANSAS CITY METROPOLITAN AREA...

CITY           SKY/WX    TMP DP  RH WIND       PRES   REMARKS
K.C. INTL      PTSUNNY   77  70  79 N6        29.95R
K.C. DOWNTOWN  MOSUNNY   82  68  62 VRB5      29.92R
LEES SUMMIT    SUNNY     78  69  73 S8        29.94R
OLATHE - IXD   SUNNY     76  70  82 S10       29.93R
OLATHE - OJC   PTSUNNY   75  69  81 S7        29.93R
LAWRENCE       MOSUNNY   79  68  69 CALM      29.92R

$$

MOZ001>008-011>017-020>025-030>033-038>040-044>046-053-054-231400-
...NORTHERN AND CENTRAL MISSOURI...

CITY           SKY/WX    TMP DP  RH WIND       PRES   REMARKS
ST. JOSEPH     PTSUNNY   76  73  91 E6        29.91R
MOSBY          MOSUNNY   75  72  88 CALM      29.94R
WHITEMAN AFB   SUNNY     78  53  41 S10       29.95R
CLINTON        SUNNY     79  73  83 CALM      29.96R
SEDALIA        SUNNY     81  71  71 S10       29.97R
WARSAW         NOT AVBL
MARSHALL       MOSUNNY   79  75  89 S6        29.96R
CHILLICOTHE      N/A     78  74  87 CALM      29.96R
MOBERLY        SUNNY     81  72  74 SW6       29.97R
KIRKSVILLE     PTSUNNY   79  75  87 W3        29.98R

$$

MOZ041-047>049-056>058-063>065-088>090-097-231400-
...EASTERN AND SOUTHERN MISSOURI...

CITY           SKY/WX    TMP DP  RH WIND       PRES   REMARKS
ST. LOUIS INTL MOSUNNY   83  74  74 W6        29.96R
SPIRIT OF STL  MOSUNNY   80  74  81 W6        29.95R
COLUMBIA       SUNNY     80  74  81 SW6       29.98R
JEFFERSON CITY SUNNY     80  73  79 CALM      29.97R
MEXICO         SUNNY    N/A N/A N/A SW5       29.97R
ROLLA          SUNNY     78  72  81 SW8       30.00R
LEBANON        SUNNY     81  70  69 SW6       30.03R
OSAGE BEACH    SUNNY     79  72  78 CALM      29.99R
SPRINGFIELD    SUNNY     77  71  82 S9        30.01R
BRANSON        SUNNY     81  70  69 SW6       30.03S
NEVADA         MOSUNNY   79  70  73 SW8       29.97R
JOPLIN         MOSUNNY   80  69  69 S14       29.97S
WEST PLAINS    MOSUNNY   78  73  84 W5        30.04R

$$

IAZ060-094-KSZ022-034>040-054-083-096-NEZ052-066-093-231400-
...KANSAS...SOUTHEAST NEBRASKA AND IOWA...

CITY           SKY/WX    TMP DP  RH WIND       PRES   REMARKS
TOPEKA         SUNNY     79  67  66 S6        29.91R
MANHATTAN      SUNNY     78  65  63 SE3       29.87S
EMPORIA        SUNNY     73  65  75 S15       29.89S
CHANUTE        SUNNY     77  68  73 S10       29.94R
WICHITA        MOSUNNY   73  61  65 S8        29.90R
OMAHA          CLOUDY    72  67  84 VRB6      29.88S
LINCOLN        PTSUNNY   71  67  87 SE6       29.87S
FALLS CITY     PTSUNNY   72  70  93 E8        29.90R
LAMONI         CLOUDY    71  69  93 SE6       29.96R
DES MOINES     LGT RAIN  73  70  90 S8        29.95R

$$




USA.gov is the U.S. government's official web portal to all federal, state and local government web resources and services.